[Iaude] MPEC N46: 2022 OW5 [a=1.71,e=0.33,i=10.1,H=20.57]
    mpec at cfa.harvard.edu 
    mpec at cfa.harvard.edu
       
    Fri Jul  5 10:18:30 EDT 2024
    
    
  
M.P.E.C. 2024-N46                                  Issued 2024 July 5, 14:17 UT
     The Minor Planet Electronic Circulars contain information on unusual
         minor planets, routine data on comets and natural satellites,
         and occasional editorial announcements.  They are published
    on behalf of Division F of the International Astronomical Union by the
          Minor Planet Center, Smithsonian Astrophysical Observatory,
                          Cambridge, MA 02138, U.S.A.
			  
             Prepared using the Tamkin Foundation Computer Network
                              MPC at CFA.HARVARD.EDU
            URL https://www.minorplanetcenter.net/    ISSN 1523-6714
                                    2022 OW5                                    
                           Revision to MPEC 2022-P23                            
Additional Observations:
     K22O05W 0C2024 06 10.42899316 56 49.823-25 10 46.53         22.06GVEN046T12
     K22O05W 0C2024 06 10.45093716 56 47.531-25 10 33.45         22.25GVEN046T12
     K22O05W 0C2024 07 02.28990316 24 02.837-21 12 59.53         22.64GVEN046T12
     K22O05W 0C2024 07 02.29212116 24 02.674-21 12 58.06         22.87GVEN046T12
     K22O05W 0C2024 07 02.29440416 24 02.504-21 12 56.60         22.67GVEN046T12
Observer details:
T12 University of Hawaii 88-inch telescope, Maunakea.  Observers D. J. Tholen,
    J. K. Martin.  Measurer D. J. Tholen.  2.24-m f/10.1 reflector + 2112 x
    2112 pixels STA1600 10k CCD.
First and last observations above in comparison with prediction:
Residuals in seconds of arc, reference and Delta-T
240610 T12  2.2+  0.2+    240702 T12  2.0+  0.2+    E2024-F62   -0.00 days
Orbital elements:
2022 OW5                                                 Earth MOID = 0.2036 AU
Epoch 2024 Mar. 31.0 TT = JDT 2460400.5                 Veres                   
M 237.60570              (2000.0)            P               Q                  
n   0.44221817     Peri.  119.70849     +0.89915172     -0.40167770             
a   1.7062592      Node   264.44923     +0.31635828     +0.87086484             
e   0.3337015      Incl.   10.05223     +0.30239647     +0.28328336             
P   2.23           H   20.57          G   0.15           U   1                  
Residuals in seconds of arc
220731 F52  0.0   0.1+    221007 A17  0.2-  0.0     221213 H21  0.1-  0.0
220731 F52  0.0   0.0     221008 B72  0.1-  0.1-    221213 H21  0.4-  0.0
220731 F52  0.2-  0.0     221008 B72  0.1+  0.1-    221213 H21  0.0   0.1-
220731 F52  0.1-  0.1+    221019 T05  0.3-  0.2-    221215 B72  0.1-  0.1+
220731 F52  0.1+  0.1+    221019 T05  0.3-  0.6+    221215 B72  0.1+  0.1+
220731 F52  0.0   0.0     221019 T05  1.2-  0.4-    221215 B72  0.2-  0.3+
220801 658  0.3+  1.4-    221019 T05  0.4-  0.3-    221216 G96 (0.3-  0.2-)
220801 658  0.4+  1.3-    221027 A17  0.2+  0.2-    221216 G96  0.1+  0.1+
220801 658  0.6+  1.0-    221027 A17  0.1-  0.1-    221216 G96 (1.0+  0.0 )
220801 658  0.6+  0.5-    221027 A17  0.3+  0.2-    221216 G96 (2.7+  0.1+)
220801 658  0.4+  0.3-    221031 G96  0.0   0.1+    221216 K74  0.4+  0.1-
220801 568  0.1-  0.0     221031 G96  0.2-  0.3-    221216 K74  0.3+  0.1-
220801 568  0.0   0.0     221031 G96  0.0   0.1+    221216 K74  0.1+  0.3+
220801 568  0.0   0.0     221031 G96  0.1-  0.0     221216 K74  0.4+  0.1-
220802 658  0.7+  0.8-    221102 T08  0.1+  0.2+    221216 K74  0.0   0.0
220802 658  0.3+  1.0-    221102 T08  0.3-  0.7+    221216 K74  0.0   0.3-
220802 658  0.0   0.9-    221102 T08  0.6+  0.5+    221217 G96  0.1+  0.1+
220802 H36  0.4+  0.4-    221102 T08  0.3-  0.4-    221217 G96  0.0   0.0
220802 658  0.4-  0.5-    221105 B88  0.2-  0.1+    221217 G96  0.0   0.1+
220802 658  0.3-  0.4-    221105 B88  0.1-  0.0     221217 G96  0.0   0.0
220802 H36  0.3+  0.1+    221106 B88  0.2+  0.1-    221217 B72  0.1+  0.3-
220802 H36  0.4-  0.2+    221110 B72  0.2-  0.0     221217 B72  0.2+  0.1-
220804 C95 (2.1+  1.7-)   221110 B72  0.2-  0.1-    221217 B72  0.1+  0.2-
220804 C95  0.3-  1.4-    221114 T08  0.2-  0.1+    221219 703  0.1+  0.4-
220807 J95  0.7+  0.5+    221114 T08  0.2-  0.3+    221219 703  0.3+  0.0
220807 J95  0.2-  0.2+    221114 T08  0.2+  0.2+    221219 703  0.5-  1.2+
220817 H21  0.1+  0.3+    221114 T08  0.6+  0.8-    221219 703  0.3+  0.2+
220817 H21  0.1+  0.2+    221123 T05  0.1+  0.2-    221221 D29  0.1+  0.2-
220817 H21  0.3+  0.1-    221123 T05  0.3-  0.3-    221221 D29  0.2+  0.4-
220818 F51  0.0   0.1+    221123 T05  0.5-  0.5-    221221 D29  0.4-  0.1-
220818 F51  0.0   0.1+    221123 T05  0.3+  0.1+    221224 G96  0.0   0.0
220818 F51  0.0   0.0     221124 B72  0.1-  0.1-    221224 G96  0.1+  0.0
220818 F51  0.0   0.0     221124 B72  0.2+  0.1-    221224 703  0.1-  0.2+
220819 H21  0.2-  0.4-    221124 B72  0.0   0.1+    221224 G96  0.0   0.0
220819 H21  0.2+  0.8-    221126 K19  0.1-  0.3+    221224 703  0.5+  0.7-
220819 H21  0.6+  0.6-    221126 K19  0.7+  0.1-    221224 G96  0.0   0.2-
220829 H36  0.4+  0.6+    221126 K19  0.1-  1.1-    221224 703  0.0   0.5+
220829 H36  0.2+  0.7+    221201 T05  0.0   0.1+    230113 F52  0.1-  0.0
220829 H36  0.7+  0.4+    221201 T05  0.1+  0.1-    230113 F52  0.1-  0.1+
220908 Z84  0.1+  0.1+    221201 T05  0.0   0.0     230113 F52  0.1-  0.0
220908 Z84  0.1+  0.1+    221201 T05  0.2-  0.1+    230113 F52  0.1+  0.0
220911 B88  0.6-  0.8-    221202 T05  0.1-  0.2-    230122 F52  0.0   0.1+
220912 B88 (0.8+  0.8-)   221202 T05  0.2-  0.0     230122 F52  0.0   0.0
220912 B88  0.5+  0.1+    221202 T05  0.2+  0.2+    230122 F52  0.0   0.1+
220912 B88  0.4+  0.2-    221202 T05  0.2+  0.2-    230212 H21  0.2-  0.7+
220913 B88  0.1-  0.0     221202 T05  0.2+  0.3-    230212 H21  0.0   0.4+
220913 B88  0.3-  0.3-    221202 T05  0.1+  0.1-    240610 T12  0.0   0.0
220923 A17  0.1+  0.6-    221202 T05  0.2+  0.1+    240610 T12  0.0   0.0
220923 A17  0.0   0.0     221213 H21  0.0   0.1-    240702 T12  0.0   0.0
220923 A17  0.1-  0.0     221213 H21  0.0   0.1-    240702 T12  0.0   0.0
221007 A17  0.2-  0.1+    221213 H21  0.1-  0.0     240702 T12  0.0   0.0
Ephemeris:
2022 OW5                 a,e,i = 1.71, 0.33, 10                  q = 1.1369
Date    TT    R. A. (2000) Decl.     Delta      r    Elong.  Phase     V
2024 06 05    17 05 48.2 -26 01 35   0.8977  1.9108   175.4     2.4    22.0
...
2024 06 20    16 41 07.8 -23 29 30   0.8581  1.8540   163.1     9.2    22.2
...
2024 06 28    16 29 24.9 -22 00 05   0.8586  1.8223   152.6    14.9    22.4
...
2024 07 04    16 22 07.1 -20 54 32   0.8676  1.7979   145.0    18.9    22.5
2024 07 05    16 21 03.2 -20 43 58   0.8697  1.7937   143.8    19.6    22.5
2024 07 06    16 20 02.1 -20 33 32   0.8720  1.7896   142.6    20.2    22.5
...
2024 07 12    16 14 56.0 -19 34 11   0.8891  1.7645   135.5    23.8    22.7
...
2024 07 20    16 10 56.4 -18 25 39   0.9190  1.7303   126.7    28.1    22.8
...
2024 08 04    16 11 54.5 -16 53 45   0.9888  1.6640   112.3    34.3    23.1
A. U. Tomatic                (C) Copyright 2024 MPC           M.P.E.C. 2024-N46
    
    
More information about the Iaude
mailing list